Location: Krasnoyarskiy Pitomnik
(51.1333°N, 71.6167°E)
Time: 10:13:23
(UTC+00:00)

Altair - Pass Details

Date: 18 April 2024
Orbit: 1501 x 1682 km, 47.2° (Epoch: 17 May)

Event Time Altitude Azimuth Distance (km) Brightness Sun altitude
Rises 20:34:06 0° 286° (WNW) 4,817 10.1 -25.2°
Reaches altitude 10° 20:37:32 10° 279° (W) 3,803 9.4 -25.0°
Enters shadow 20:44:52 36° 232° (SW) 2,277 7.9 -24.5°
Maximum altitude 20:46:01 37° 217° (SW) 2,232 - -24.4°
Drops below altitude 10° 20:54:15 10° 154° (SSE) 3,677 - -23.9°
Exits shadow 20:56:49 - 148° (SSE) 4,430 9.6 -23.7°
Sets 20:57:30 0° 146° (SSE) 4,641 9.8 -23.6°
